[[{"header":{"parameterUnit":"m.s-1","parameterCategory":1,"la1":30.2991,"la2":30.254,"lo1":-89.0895,"lo2":-89.0444,"dy":0.0017,"dx":0.0017,"nx":28,"ny":28,"refTime":"2025-05-26T09:00:00:Z","depth":0,"parameterNumber":2,"parameterNumberName":"U-component_of_WINDS"},"data":[0,0,0,0,0,0,0,0,0,0,0,0,0,0,0,0,0,0,0,0,0,0,0,0,0,0,0,0,0,0,0,0,0,0,0,0,0,0,0,0,0,0,0,0,0,0,0,0,0,0,0,0,0,0,0,0,0,0,0.5878,0.5879,0,0.5955,0.5956,0.5957,0.6009,0.6009,0.6009,0.601,0.6089,0.6091,0.6092,0,0,0,0,0,0,0,0,0,0,0,0,0,0.5775,0.5777,0.5878,0.5879,0.588,0.5955,0.5956,0.5957,0.6008,0.6009,0.6009,0.601,0.6088,0.609,0.6092,0,0,0,0,0,0,0,0,0,0,0,0,0,0.5833,0.5777,0.5878,0.5914,0.5919,0.5955,0.5956,0.5957,0.6008,0.6009,0.6009,0.601,0.6088,0.609,0.6093,0.6098,0,0,0.6101,0.6102,0,0,0,0,0,0,0,0,0.5829,0.5836,0.5908,0.5912,0.5917,0.5973,0.5949,0.6005,0.6008,0.5974,0.601,0.601,0.605,0.6056,0.6069,0.6102,0.6105,0.6101,0.6103,0.6104,0.6105,0,0,0,0,0,0,0,0.5825,0.5833,0.5908,0.5909,0.5914,0.5927,0.5936,0.596,0.6008,0.5977,0.5981,0.599,0.6052,0.6066,0.6071,0.6107,0.6101,0.6103,0.6105,0.6106,0.6148,0.6148,0,0,0,0,0,0,0.5815,0.583,0.5906,0.5911,0.5873,0.5929,0.5938,0.5954,0.6008,0.6017,0.5989,0.5992,0.6061,0.6068,0.6074,0.6084,0.6104,0.6106,0.6108,0.6149,0.6148,0.6148,0,0,0,0,0,0,0.5813,0.5822,0.5903,0.5871,0.5883,0.593,0.5947,0.5955,0.5969,0.6017,0.6026,0.5994,0.6062,0.607,0.6092,0.6088,0.6108,0.611,0.6149,0.6149,0.6148,0.6105,0,0,0,0,0,0,0.581,0.5821,0.5823,0.5871,0.5884,0.5919,0.5947,0.5957,0.5974,0.5978,0.6024,0.6032,0.6063,0.6088,0.6095,0.6092,0.6112,0.615,0.6149,0.6148,0.6107,0.6102,0.6099,0,0,0,0,0,0.5806,0.5808,0.5823,0.5832,0.5888,0.5919,0.5926,0.5962,0.5973,0.5976,0.6007,0.6031,0.6087,0.6089,0.6098,0.6096,0.615,0.6149,0.6148,0.6108,0.6103,0.6099,0,0,0,0,0,0,0.5758,0.5815,0.5832,0.585,0.5879,0.5927,0.5932,0.5955,0.5982,0.5985,0.6027,0.6037,0.6054,0.6077,0.6079,0.6104,0.6122,0.6122,0.6088,0.6084,0.608,0.6075,0.6114,0,0,0,0,0,0.575,0.577,0.5818,0.5829,0.5843,0.5885,0.5899,0.5924,0.5956,0.5969,0.6001,0.6031,0.6056,0.6071,0.6096,0.611,0.6121,0.6113,0.6109,0.6105,0.6105,0.6115,0.6111,0.6144,0.6144,0.6144,0,0,0.5733,0.5766,0.5776,0.582,0.5846,0.5866,0.5895,0.5915,0.593,0.5972,0.5994,0.6019,0.6056,0.6073,0.6083,0.6093,0.6099,0.6104,0.6101,0.6103,0.6113,0.611,0.6107,0.6144,0.6144,0.6144,0,0,0.5711,0.5739,0.5751,0.5776,0.5814,0.5842,0.5845,0.589,0.5908,0.5931,0.5963,0.5981,0.6023,0.6048,0.6066,0.6053,0.6077,0.606,0.6041,0.6049,0.6046,0.6044,0.604,0.6038,0.606,0.606,0.606,0,0.5685,0.5716,0.5754,0.5772,0.579,0.5829,0.5841,0.5864,0.5908,0.592,0.5931,0.5984,0.6011,0.6035,0.6032,0.6045,0.605,0.6056,0.6044,0.6042,0.6041,0.6037,0.6035,0.6058,0.6058,0.6058,0.6059,0,0.5682,0.5703,0.5708,0.5751,0.577,0.5785,0.5824,0.5839,0.5862,0.5888,0.5911,0.5946,0.5978,0.5986,0.6008,0.6013,0.6018,0.6035,0.6054,0.6035,0.6032,0.6031,0.6055,0.6055,0.6056,0.6057,0,0,0.5634,0.5696,0.5697,0.5717,0.5762,0.5779,0.5796,0.5828,0.584,0.5869,0.5884,0.5918,0.5935,0.5955,0.598,0.5988,0.5976,0.6004,0.6006,0.5998,0.5984,0.597,0.5968,0.5991,0.5991,0.5991,0.5981,0,0.5619,0.5652,0.5686,0.5706,0.5726,0.5763,0.5777,0.5807,0.5832,0.5853,0.5881,0.5904,0.5924,0.5937,0.5945,0.5975,0.5974,0.5977,0.6006,0.6007,0.5996,0.5967,0.5953,0.5941,0.598,0.598,0.5979,0,0.5607,0.5635,0.5657,0.57,0.571,0.5723,0.5755,0.5774,0.5808,0.5826,0.5848,0.5875,0.5895,0.5911,0.5938,0.594,0.5954,0.597,0.5971,0.5975,0.5992,0.5971,0.5938,0.5936,0.5978,0.5978,0.5978,0,0.557,0.5612,0.5631,0.5647,0.5698,0.5706,0.5727,0.5762,0.5779,0.5807,0.5818,0.5848,0.5864,0.5887,0.5921,0.593,0.5945,0.5964,0.5961,0.596,0.5963,0.5962,0.5932,0.5971,0.5971,0.5971,0.5971,0,0.5551,0.5563,0.5615,0.5627,0.5641,0.568,0.5694,0.5719,0.5749,0.5766,0.58,0.5815,0.5859,0.588,0.5907,0.5926,0.5933,0.5948,0.5955,0.5945,0.5943,0.5955,0.5957,0.5971,0.5971,0.5971,0.5971,0,0.5511,0.5547,0.557,0.5616,0.5628,0.5637,0.5676,0.5689,0.5716,0.5737,0.5745,0.5787,0.5813,0.585,0.5887,0.5905,0.592,0.5931,0.5908,0.5913,0.5907,0.5907,0.5885,0.5884,0.5922,0.5922,0.5922,0,0.5497,0.5507,0.5554,0.5568,0.5589,0.561,0.5628,0.5666,0.5683,0.5723,0.573,0.5759,0.5784,0.5824,0.5858,0.5887,0.5899,0.5889,0.5903,0.5893,0.5899,0.5898,0.5899,0.5885,0.5885,0.5884,0.5884,0,0.5467,0.5484,0.5508,0.5538,0.5558,0.5584,0.5611,0.562,0.5665,0.5682,0.5709,0.5728,0.5766,0.5794,0.5827,0.585,0.5874,0.5879,0.588,0.587,0.5856,0.5864,0.5899,0.5879,0.588,0.588,0.588,0.5881,0.544,0.5451,0.5486,0.5512,0.5536,0.5561,0.5575,0.5604,0.5627,0.566,0.5682,0.5708,0.5741,0.5788,0.581,0.583,0.584,0.5841,0.5842,0.5842,0.5838,0.5853,0.5837,0.5837,0.5837,0.5837,0.5837,0,0.5413,0.5437,0.546,0.5497,0.5517,0.5538,0.5569,0.5585,0.5607,0.5636,0.566,0.5691,0.5718,0.5754,0.5784,0.5794,0.5806,0.58,0.58,0.5805,0.5827,0.5824,0.579,0.579,0.579,0.579,0.579,0.579,0.5401,0.542,0.5441,0.5473,0.5498,0.5523,0.5539,0.5562,0.5585,0.5618,0.5641,0.5664,0.5697,0.5729,0.5755,0.5765,0.5775,0.5766,0.5779,0.5799,0.5803,0.5808,0.5804,0.5767,0.5767,0.5755,0.5755,0.5755]},{"header":{"parameterUnit":"m.s-1","parameterCategory":1,"la1":30.2991,"la2":30.254,"lo1":-89.0895,"lo2":-89.0444,"dy":0.0017,"dx":0.0017,"nx":28,"ny":28,"refTime":"2025-05-26T09:00:00:Z","depth":0,"parameterNumber":3,"parameterNumberName":"V-component_of_WINDS"},"data":[0,0,0,0,0,0,0,0,0,0,0,0,0,0,0,0,0,0,0,0,0,0,0,0,0,0,0,0,0,0,0,0,0,0,0,0,0,0,0,0,0,0,0,0,0,0,0,0,0,0,0,0,0,0,0,0,0,0,2.9306,2.9306,0,2.9243,2.9242,2.9241,2.9229,2.923,2.923,2.9231,2.9162,2.916,2.9158,0,0,0,0,0,0,0,0,0,0,0,0,0,2.9414,2.9412,2.9306,2.9306,2.9305,2.9243,2.9242,2.9241,2.9229,2.923,2.9231,2.9231,2.9163,2.916,2.9157,0,0,0,0,0,0,0,0,0,0,0,0,0,2.9361,2.9412,2.9306,2.9292,2.929,2.9243,2.9242,2.9241,2.9229,2.923,2.9231,2.9231,2.9164,2.916,2.9157,2.912,0,0,2.9146,2.9145,0,0,0,0,0,0,0,0,2.9364,2.9357,2.9294,2.9292,2.929,2.9245,2.9255,2.92,2.9229,2.9252,2.9231,2.9232,2.9189,2.9183,2.917,2.9117,2.9114,2.9146,2.9144,2.9143,2.9142,0,0,0,0,0,0,0,2.9367,2.9359,2.9281,2.9294,2.9291,2.9287,2.928,2.9244,2.9217,2.925,2.9249,2.9242,2.9188,2.9173,2.9168,2.9113,2.9146,2.9143,2.9141,2.914,2.9026,2.9025,0,0,0,0,0,0,2.9374,2.9362,2.9283,2.9279,2.933,2.9284,2.9277,2.9259,2.9217,2.9212,2.9241,2.9242,2.9178,2.9172,2.9165,2.9119,2.9143,2.9139,2.9137,2.9027,2.9026,2.9025,0,0,0,0,0,0,2.9377,2.9367,2.9286,2.932,2.931,2.9282,2.9261,2.9257,2.9242,2.921,2.9205,2.9231,2.9179,2.917,2.9131,2.9116,2.9138,2.9135,2.9028,2.9026,2.9025,2.9026,0,0,0,0,0,0,2.938,2.9368,2.9354,2.932,2.9308,2.9254,2.926,2.9255,2.9237,2.9236,2.92,2.9194,2.9179,2.9137,2.9128,2.9112,2.9132,2.9029,2.9027,2.9026,2.9027,2.9025,2.9023,0,0,0,0,0,2.9384,2.9356,2.9354,2.9344,2.929,2.9253,2.9246,2.9229,2.9235,2.9221,2.9201,2.9196,2.912,2.9133,2.9123,2.9106,2.903,2.9028,2.9026,2.9028,2.9025,2.9023,0,0,0,0,0,0,2.9388,2.9352,2.9348,2.931,2.9285,2.9251,2.9232,2.9227,2.9198,2.9199,2.9179,2.9171,2.9133,2.9115,2.9131,2.9067,2.9075,2.9071,2.908,2.9077,2.9075,2.908,2.9129,0,0,0,0,0,2.9385,2.9358,2.9328,2.9296,2.9284,2.926,2.9243,2.9233,2.9206,2.9195,2.9172,2.9144,2.9114,2.9095,2.9066,2.9025,2.9016,2.9008,2.9006,2.9004,2.9001,2.8978,2.8974,2.9018,2.9018,2.9018,0,0,2.9377,2.9354,2.9338,2.9297,2.9276,2.9248,2.9251,2.9222,2.92,2.919,2.9152,2.9134,2.9102,2.9063,2.9044,2.9047,2.8987,2.9002,2.9001,2.8998,2.8975,2.8971,2.8967,2.9016,2.9017,2.9017,0,0,2.9349,2.9329,2.9301,2.9281,2.925,2.9235,2.9228,2.9195,2.9183,2.9146,2.9137,2.9111,2.906,2.9038,2.902,2.8984,2.8978,2.8975,2.8963,2.8941,2.8938,2.8935,2.8922,2.8917,2.8972,2.8972,2.8972,0,2.9343,2.9302,2.9287,2.9258,2.9239,2.923,2.9201,2.9181,2.9142,2.9129,2.9133,2.9069,2.9047,2.9002,2.8994,2.8979,2.897,2.8979,2.894,2.8936,2.8933,2.892,2.8916,2.8971,2.8971,2.8971,2.8971,0,2.9296,2.9268,2.9248,2.9212,2.9192,2.9163,2.9142,2.9123,2.9115,2.9099,2.906,2.9033,2.8999,2.8987,2.8978,2.8941,2.8944,2.8944,2.8951,2.8929,2.8917,2.8912,2.8971,2.8971,2.8971,2.8971,0,0,2.9268,2.9225,2.9218,2.9202,2.9168,2.9145,2.9115,2.9082,2.9066,2.9039,2.9014,2.8971,2.8971,2.8951,2.894,2.892,2.8894,2.8923,2.8922,2.8918,2.8851,2.885,2.8845,2.889,2.8889,2.8888,2.8853,0,2.9236,2.9184,2.917,2.9125,2.9099,2.909,2.9064,2.9039,2.9024,2.8998,2.898,2.895,2.8953,2.8941,2.8921,2.8901,2.888,2.8903,2.8865,2.8864,2.8873,2.8839,2.8838,2.8806,2.8848,2.8847,2.8847,0,2.9191,2.9165,2.9118,2.9088,2.9076,2.9054,2.9023,2.8998,2.897,2.896,2.8938,2.8929,2.8896,2.8906,2.8861,2.8878,2.8861,2.8849,2.8847,2.8843,2.8854,2.8833,2.8796,2.8791,2.8839,2.884,2.884,0,2.9175,2.9128,2.9095,2.9081,2.9045,2.9029,2.9013,2.8986,2.8967,2.894,2.8927,2.8896,2.8879,2.8855,2.8837,2.8845,2.8793,2.8801,2.8783,2.8784,2.8772,2.8773,2.8732,2.8762,2.8762,2.8762,2.8763,0,2.914,2.9112,2.9087,2.9066,2.9034,2.9018,2.8986,2.8969,2.8946,2.8921,2.8911,2.8887,2.8865,2.8839,2.8824,2.8789,2.8781,2.8772,2.8768,2.8773,2.8774,2.8761,2.8763,2.8761,2.8761,2.8762,2.8762,0,2.9117,2.9099,2.9062,2.9031,2.9023,2.9,2.8974,2.8952,2.8937,2.8905,2.8897,2.8872,2.884,2.882,2.8779,2.877,2.8731,2.8729,2.8741,2.8739,2.8723,2.8724,2.8671,2.8663,2.8699,2.8699,2.8699,0,2.9096,2.9074,2.9041,2.9025,2.9009,2.8982,2.8963,2.8946,2.8927,2.8894,2.8877,2.8845,2.8818,2.8768,2.8745,2.8714,2.871,2.8694,2.8705,2.8711,2.871,2.8711,2.8709,2.8692,2.8692,2.8691,2.8691,0,2.906,2.9052,2.9027,2.8998,2.8976,2.8952,2.8928,2.8915,2.8893,2.8872,2.884,2.882,2.8779,2.8747,2.8714,2.8697,2.869,2.8688,2.8682,2.8686,2.8694,2.8689,2.8736,2.8689,2.8689,2.8689,2.8689,2.8689,2.9036,2.9017,2.8991,2.8963,2.8943,2.8921,2.89,2.8883,2.8856,2.8822,2.8814,2.878,2.8753,2.8708,2.869,2.8663,2.8665,2.8657,2.8655,2.8653,2.8653,2.8699,2.8657,2.8657,2.8657,2.8657,2.8657,0,2.9,2.8983,2.8958,2.8925,2.8903,2.89,2.8873,2.8854,2.8826,2.8801,2.8776,2.8739,2.8708,2.8684,2.8652,2.8635,2.8631,2.8627,2.8628,2.8624,2.8652,2.8661,2.8631,2.8631,2.8631,2.8631,2.8631,2.8631,2.8978,2.8945,2.8935,2.8892,2.8875,2.8843,2.8828,2.8808,2.8788,2.8748,2.8723,2.8708,2.8683,2.865,2.8621,2.8615,2.8603,2.86,2.8593,2.8619,2.8622,2.8625,2.8633,2.8598,2.8598,2.8567,2.8567,2.8567]}]]